| time (UTC) | temp C | wind direction | speed KPH | gust KPH | rain 1hr cm | rain 24hr cm | rain mn cm | humidity % | barometer mb |
| 20260509153136 | 9 | 88 | 0.0 | 0.0 | 0.00 | 1.17 | 1.17 | 90 | 1025.7 |
| 20260509151534 | 9 | 88 | 0.0 | 0.0 | 0.00 | 1.17 | 1.17 | 90 | 1025.7 |
| 20260509150033 | 9 | 88 | 0.0 | 0.0 | 0.00 | 1.17 | 1.17 | 88 | 1025.7 |
| 20260509144535 | 9 | 88 | 0.0 | 0.0 | 0.00 | 1.17 | 1.17 | 89 | 1025.7 |
| 20260509143042 | 9 | 93 | 0.0 | 0.0 | 0.00 | 1.17 | 1.17 | 87 | 1025.7 |
| 20260509141540 | 9 | 93 | 0.0 | 0.0 | 0.00 | 1.17 | 1.17 | 88 | 1025.7 |
| 20260509140031 | 9 | 93 | 0.0 | 0.0 | 0.00 | 1.17 | 1.17 | 87 | 1025.7 |
| 20260509134530 | 9 | 93 | 0.0 | 0.0 | 0.00 | 1.17 | 1.17 | 85 | 1025.7 |
| 20260509133029 | 10 | 93 | 0.0 | 0.0 | 0.00 | 1.17 | 1.17 | 84 | 1025.7 |
| 20260509131535 | 10 | 93 | 0.0 | 0.0 | 0.00 | 1.17 | 1.17 | 79 | 1025.7 |
| 20260509130031 | 10 | 93 | 0.0 | 0.0 | 0.00 | 1.17 | 1.17 | 74 | 1025.7 |
| 20260509124534 | 10 | 93 | 0.0 | 0.0 | 0.00 | 1.17 | 1.17 | 72 | 1025.7 |
| 20260509123032 | 9 | 93 | 0.0 | 0.0 | 0.00 | 1.17 | 1.17 | 75 | 1025.7 |
| 20260509121520 | 8 | 93 | 0.0 | 0.0 | 0.00 | 1.17 | 1.17 | 81 | 1025.7 |
| 20260509120017 | 7 | 93 | 0.0 | 0.0 | 0.23 | 1.17 | 1.17 | 83 | 1025.7 |
| 20260509114513 | 7 | 93 | 0.0 | 0.0 | 0.25 | 1.17 | 1.17 | 86 | 1025.7 |
| 20260509113010 | 6 | 93 | 0.0 | 0.0 | 0.28 | 1.17 | 1.17 | 89 | 1025.7 |
| 20260509111508 | 5 | 93 | 0.0 | 0.0 | 0.30 | 1.17 | 1.17 | 90 | 1025.7 |
| 20260509110005 | 4 | 93 | 0.0 | 0.0 | 0.13 | 0.94 | 0.94 | 90 | 1025.7 |
| 20260509104513 | 3 | 93 | 0.0 | 0.0 | 0.10 | 0.91 | 0.91 | 90 | 1025.7 |
| 20260509103003 | 3 | 93 | 0.0 | 0.0 | 0.36 | 0.89 | 0.89 | 91 | 1025.7 |
| 20260509101503 | 2 | 93 | 0.0 | 0.0 | 0.86 | 0.86 | 0.86 | 91 | 1025.7 |
| 20260509100116 | 2 | 93 | 0.0 | 0.0 | 0.81 | 0.81 | 0.81 | 91 | 1025.7 |
| 20260509094604 | 2 | 93 | 0.0 | 0.0 | 0.81 | 0.81 | 0.81 | 90 | 1025.7 |
| 20260509093101 | 2 | 93 | 0.0 | 0.0 | 0.53 | 0.53 | 0.53 | 90 | 1025.7 |
| 20260509091606 | 2 | 93 | 0.0 | 0.0 | 0.00 | 0.00 | 0.00 | 90 | 1025.7 |
| 20260509090055 | 2 | 93 | 0.0 | 0.0 | 0.00 | 0.00 | 0.00 | 90 | 1025.7 |
| 20260509084553 | 2 | 93 | 0.0 | 0.0 | 0.00 | 0.00 | 0.00 | 89 | 1025.7 |
| 20260509083052 | 2 | 93 | 0.0 | 0.0 | 0.00 | 0.00 | 0.00 | 89 | 1025.7 |
| 20260509081602 | 2 | 93 | 0.0 | 0.0 | 0.00 | 0.00 | 0.00 | 89 | 1025.7 |
| 20260509080054 | 2 | 93 | 0.0 | 0.0 | 0.00 | 0.00 | 0.00 | 89 | 1025.7 |
| 20260509074549 | 2 | 93 | 0.0 | 0.0 | 0.00 | 0.00 | 0.00 | 89 | 1025.7 |
| 20260509073049 | 2 | 93 | 0.0 | 0.0 | 0.00 | 0.00 | 0.00 | 89 | 1025.7 |
| 20260509071547 | 3 | 93 | 0.0 | 0.0 | 0.00 | 0.00 | 0.00 | 88 | 1025.7 |
| 20260509070043 | 3 | 93 | 0.0 | 0.0 | 0.00 | 0.00 | 0.00 | 88 | 1025.7 |
| 20260509064541 | 3 | 93 | 0.0 | 0.0 | 0.00 | 0.00 | 0.00 | 87 | 1025.7 |
| 20260509063041 | 3 | 93 | 0.0 | 0.0 | 0.00 | 0.00 | 0.00 | 86 | 1025.7 |
| 20260509061550 | 3 | 93 | 0.0 | 0.0 | 0.00 | 0.00 | 0.00 | 85 | 1025.7 |
| 20260509060036 | 3 | 93 | 0.0 | 0.0 | 0.00 | 0.00 | 0.00 | 84 | 1025.7 |
| 20260509054540 | 4 | 93 | 0.0 | 0.0 | 0.00 | 0.00 | 0.00 | 83 | 1025.7 |
| 20260509053050 | 4 | 93 | 0.0 | 0.0 | 0.00 | 0.00 | 0.00 | 82 | 1025.7 |
| 20260509051531 | 5 | 93 | 0.0 | 0.0 | 0.00 | 0.00 | 0.00 | 81 | 1025.7 |
| 20260509050031 | 5 | 93 | 0.0 | 0.0 | 0.00 | 0.00 | 0.00 | 79 | 1025.7 |
| 20260509044525 | 5 | 93 | 0.0 | 0.0 | 0.00 | 0.00 | 0.00 | 78 | 1025.7 |
| 20260509043022 | 6 | 93 | 0.0 | 0.0 | 0.00 | 0.00 | 0.00 | 76 | 1025.7 |
| 20260509041520 | 6 | 93 | 0.0 | 0.0 | 0.00 | 0.00 | 0.00 | 74 | 1025.7 |
| 20260509040017 | 6 | 93 | 0.0 | 0.0 | 0.00 | 0.00 | 0.00 | 72 | 1025.7 |
| 20260509034517 | 7 | 93 | 0.0 | 0.0 | 0.00 | 0.00 | 0.00 | 71 | 1025.7 |
| 20260509033017 | 7 | 93 | 0.0 | 0.0 | 0.00 | 0.00 | 0.00 | 70 | 1025.7 |
| 20260509031516 | 8 | 93 | 0.0 | 0.0 | 0.00 | 0.00 | 0.00 | 68 | 1025.7 |
| 20260509030016 | 8 | 93 | 0.0 | 0.0 | 0.00 | 0.00 | 0.00 | 66 | 1025.7 |
| 20260509024518 | 8 | 93 | 0.0 | 0.0 | 0.00 | 0.00 | 0.00 | 65 | 1025.7 |
| 20260509023015 | 9 | 93 | 0.0 | 0.0 | 0.00 | 0.00 | 0.00 | 62 | 1025.7 |
| 20260509021515 | 10 | 93 | 0.0 | 0.0 | 0.00 | 0.00 | 0.00 | 59 | 1025.7 |
| 20260509020014 | 10 | 93 | 0.0 | 0.0 | 0.00 | 0.00 | 0.00 | 58 | 1025.7 |
| 20260509014514 | 10 | 93 | 0.0 | 0.0 | 0.00 | 0.00 | 0.00 | 57 | 1025.7 |
| 20260509013012 | 10 | 93 | 0.0 | 0.0 | 0.00 | 0.00 | 0.00 | 57 | 1025.7 |
| 20260509011513 | 10 | 93 | 0.0 | 0.0 | 0.00 | 0.00 | 0.00 | 59 | 1025.7 |
| 20260509010013 | 10 | 93 | 0.0 | 0.0 | 0.00 | 0.00 | 0.00 | 56 | 1025.7 |
| 20260509004527 | 11 | 93 | 0.0 | 0.0 | 0.00 | 0.00 | 0.00 | 53 | 1025.7 |
| 20260509003011 | 11 | 93 | 0.0 | 0.0 | 0.00 | 0.00 | 0.00 | 53 | 1025.7 |
| 20260509001511 | 11 | 93 | 0.0 | 0.0 | 0.00 | 0.00 | 0.00 | 53 | 1025.7 |
| 20260509000010 | 12 | 93 | 0.0 | 0.0 | 0.00 | 0.00 | 0.00 | 49 | 1025.7 |
| 20260508234510 | 12 | 93 | 0.0 | 0.0 | 0.00 | 0.00 | 0.00 | 46 | 1025.7 |
| 20260508233009 | 13 | 93 | 0.0 | 0.0 | 0.00 | 0.00 | 0.00 | 43 | 1025.7 |
| 20260508231513 | 13 | 50 | 0.0 | 0.0 | 0.00 | 0.00 | 0.00 | 41 | 1025.7 |
| 20260508230007 | 13 | 50 | 0.0 | 0.0 | 0.00 | 0.00 | 0.00 | 40 | 1025.7 |
| 20260508224506 | 14 | 50 | 0.0 | 0.0 | 0.00 | 0.00 | 0.00 | 39 | 1025.7 |
| 20260508223017 | 14 | 50 | 0.0 | 0.0 | 0.00 | 0.00 | 0.00 | 40 | 1025.7 |
| 20260508221506 | 14 | 50 | 0.0 | 0.0 | 0.00 | 0.00 | 0.00 | 39 | 1025.7 |
| 20260508220008 | 15 | 50 | 0.0 | 0.0 | 0.00 | 0.00 | 0.00 | 39 | 1025.7 |
| 20260508214507 | 15 | 50 | 0.0 | 6.4 | 0.00 | 0.00 | 0.00 | 37 | 1025.7 |
| 20260508213004 | 15 | 49 | 1.6 | 9.7 | 0.00 | 0.00 | 0.00 | 38 | 1025.7 |
| 20260508211507 | 15 | 70 | 0.0 | 9.7 | 0.00 | 0.00 | 0.00 | 37 | 1025.7 |
| 20260508210003 | 15 | 279 | 1.6 | 12.9 | 0.00 | 0.00 | 0.00 | 36 | 1025.7 |
| 20260508204503 | 15 | 160 | 1.6 | 11.3 | 0.00 | 0.00 | 0.00 | 37 | 1025.7 |
| 20260508203002 | 15 | 71 | 4.8 | 11.3 | 0.00 | 0.00 | 0.00 | 38 | 1025.7 |
| 20260508201602 | 15 | 74 | 0.0 | 8.0 | 0.00 | 0.00 | 0.00 | 37 | 1025.7 |
| 20260508200103 | 16 | 10 | 0.0 | 8.0 | 0.00 | 0.00 | 0.00 | 37 | 1025.7 |
| 20260508194557 | 15 | 42 | 1.6 | 9.7 | 0.00 | 0.00 | 0.00 | 36 | 1025.7 |
| 20260508193137 | 15 | 44 | 0.0 | 1.6 | 0.00 | 0.00 | 0.00 | 38 | 1025.7 |
| 20260508191603 | 15 | 29 | 0.0 | 1.6 | 0.00 | 0.00 | 0.00 | 37 | 1025.7 |
| 20260508190056 | 15 | 110 | 0.0 | 11.3 | 0.00 | 0.00 | 0.00 | 37 | 1025.7 |
| 20260508184555 | 16 | 4 | 0.0 | 9.7 | 0.00 | 0.00 | 0.00 | 37 | 1025.7 |
| 20260508183054 | 15 | 66 | 0.0 | 11.3 | 0.00 | 0.00 | 0.00 | 38 | 1025.7 |
| 20260508181555 | 15 | 8 | 0.0 | 8.0 | 0.00 | 0.00 | 0.00 | 40 | 1025.7 |
| 20260508180105 | 15 | 58 | 0.0 | 3.2 | 0.00 | 0.00 | 0.00 | 40 | 1025.7 |
| 20260508174602 | 16 | 54 | 0.0 | 12.9 | 0.00 | 0.00 | 0.00 | 38 | 1025.7 |
| 20260508173051 | 16 | 93 | 1.6 | 14.5 | 0.00 | 0.00 | 0.00 | 38 | 1025.7 |
| 20260508171551 | 15 | 75 | 1.6 | 9.7 | 0.00 | 0.00 | 0.00 | 42 | 1025.7 |
| 20260508170049 | 16 | 102 | 3.2 | 9.7 | 0.00 | 0.00 | 0.00 | 39 | 1025.7 |
| 20260508164550 | 16 | 150 | 0.0 | 9.7 | 0.00 | 0.00 | 0.00 | 38 | 1025.7 |
| 20260508163048 | 16 | 62 | 0.0 | 3.2 | 0.00 | 0.00 | 0.00 | 39 | 1025.7 |
| 20260508161546 | 16 | 34 | 0.0 | 6.4 | 0.00 | 0.00 | 0.00 | 38 | 1025.7 |
| 20260508160042 | 16 | 243 | 0.0 | 12.9 | 0.00 | 0.00 | 0.00 | 38 | 1025.7 |
| 20260508154541 | 15 | 51 | 0.0 | 9.7 | 0.00 | 0.00 | 0.00 | 39 | 1025.7 |